Temperature
17 17 18 18 14 12 13 14 14 14 14 14 14 13 12 12 12 12 11 11 11 11 12 12 12 12 12 12 13 13 13 14 14 14 14 14 14 14 14 14 14 14 14 14 14 14 14 14 14
17 17 18 17 12 13 13 13 13 13 14 14 13 13 11 10 10 10 10 10 11 11 11 11 11 12 12 12 12 13 13 13 13 13 14 14 14 14 14 14 14 14 14 14 14 14 14 14 14
17 17 17 11 12 12 14 13 12 13 14 14 12 11 10 10 10 10 10 10 11 11 11 11 11 11 12 12 12 12 12 13 13 13 13 13 13 13 13 13 13 14 13 13 13 13 13 13 13
17 17 15 11 12 12 13 12 12 12 13 13 12 10 9 9 9 10 10 10 11 11 11 11 11 11 11 12 12 12 12 12 13 13 13 13 13 13 13 13 13 13 13 13 13 13 13 13 13
17 16 11 11 12 12 11 12 13 12 12 12 11 9 9 9 9 10 10 10 11 11 11 11 11 11 11 11 12 12 12 12 12 12 13 13 13 13 13 13 13 13 13 13 13 13 13 13 13
16 12 11 11 12 12 12 13 12 11 11 11 10 8 8 9 9 10 10 10 10 10 10 11 11 11 11 11 12 12 12 12 12 12 12 12 12 13 13 13 12 13 12 12 12 13 13 13 13
14 10 11 11 11 11 12 13 12 11 11 10 11 8 8 8 9 9 9 9 10 10 10 10 11 11 11 11 11 12 12 12 12 12 12 12 12 12 12 12 12 12 12 12 12 12 12 12 12
14 10 11 10 11 11 12 12 12 11 10 10 10 8 8 8 8 8 9 9 9 9 10 10 10 10 11 11 11 11 11 11 11 12 12 12 12 12 12 12 12 12 12 12 12 12 12 12 12
14 9 10 11 11 11 11 11 11 11 10 9 9 9 9 8 8 8 8 9 9 9 9 9 10 10 10 10 11 11 11 11 11 11 11 11 11 11 12 12 12 12 11 11 12 12 12 12 12
12 9 10 10 10 10 10 10 10 10 9 8 8 9 9 8 8 8 8 8 9 9 9 9 9 9 10 10 10 10 10 11 11 11 11 11 11 11 11 11 11 11 11 11 11 11 11 11 11
9 8 9 9 10 10 10 10 10 9 7 7 8 8 8 8 8 8 8 8 8 8 8 8 8 9 9 9 10 10 10 10 10 10 10 10 10 10 11 11 11 11 11 11 11 11 11 11 11
8 8 9 9 10 10 9 9 8 8 8 9 9 8 8 8 7 7 7 7 7 7 8 8 8 8 9 9 9 9 9 9 10 10 10 10 10 10 10 10 10 10 10 10 10 10 10 10 10
8 8 8 9 9 9 9 8 8 7 8 8 8 8 7 7 7 7 7 7 7 7 7 8 8 8 8 8 9 9 9 9 9 9 9 9 10 10 10 10 10 10 10 10 10 10 10 10 10
7 7 8 8 8 8 7 7 7 7 7 7 7 7 6 7 6 6 6 7 7 7 7 7 7 7 8 8 8 8 8 8 8 9 9 9 9 9 9 9 9 9 9 9 9 9 9 9 9
8 7 7 7 8 8 7 6 5 7 7 7 6 6 6 6 6 6 6 6 6 7 7 7 7 7 7 7 8 8 8 8 8 8 8 8 8 8 9 9 9 9 9 9 9 9 9 9 9
7 7 7 7 7 7 7 7 6 7 6 6 6 5 5 5 5 5 5 6 6 6 6 6 6 7 7 7 7 7 7 7 8 8 8 8 8 8 8 8 8 8 8 8 8 8 8 8 8
6 6 7 7 6 6 6 5 5 6 6 5 5 5 5 4 5 5 5 5 5 5 6 6 6 6 6 6 7 7 7 7 7 7 7 7 7 7 7 7 8 8 8 8 8 8 8 8 8
6 6 6 6 6 5 5 4 4 5 5 4 4 4 4 4 4 4 4 5 5 5 5 5 5 6 6 6 6 6 6 6 7 7 7 7 7 7 7 7 7 7 7 7 7 7 7 7 7
6 6 6 6 6 5 4 4 4 4 4 3 3 3 3 4 4 4 4 4 4 4 4 5 5 5 5 5 6 6 6 6 6 6 6 6 6 6 6 6 7 7 7 7 7 7 7 7 7
6 6 5 5 5 5 4 3 3 3 3 3 3 3 3 3 3 4 4 4 4 4 4 4 4 4 5 5 5 5 5 6 6 6 6 6 6 6 6 6 6 6 6 6 6 6 6 6 6
5 5 5 4 4 4 4 4 3 3 3 3 3 3 3 3 3 3 3 4 4 4 4 4 4 4 4 4 4 4 5 5 5 5 5 5 5 5 5 5 5 5 6 6 6 6 6 6 6
5 5 4 4 3 2 3 4 3 3 2 2 2 3 3 3 3 3 3 3 3 3 3 3 3 3 3 4 4 4 4 4 5 5 5 5 4 4 5 5 5 5 5 5 5 5 5 5 5
4 4 4 3 2 2 2 3 3 2 2 2 1 2 2 3 3 3 3 3 3 3 3 3 3 3 3 3 3 3 3 4 4 4 4 4 4 4 4 4 4 4 4 4 4 4 4 4 4
3 3 2 1 1 3 2 2 3 1 2 2 1 2 2 2 3 3 3 3 3 3 3 3 3 3 2 2 3 3 3 3 3 3 3 3 3 3 3 3 3 4 4 4 4 4 4 4 4
3 2 3 3 2 3 2 2 2 2 1 1 1 2 2 2 2 2 2 2 2 2 2 2 2 2 2 2 2 2 2 2 2 2 2 2 3 3 3 3 3 3 3 3 3 3 3 3 3
2 3 3 4 3 2 1 1 1 1 1 1 2 2 2 2 2 2 2 2 2 2 2 2 1 1 1 1 1 1 1 1 2 2 2 2 2 2 2 2 2 2 2 2 2 2 2 2 2
2 1 2 1 1 1 1 0 0 1 0 0 1 1 1 1 1 1 1 1 1 1 1 1 1 1 1 1 1 1 1 1 1 1 1 1 1 1 1 1 2 2 2 2 2 2 2 2 2
1 0 -0 1 2 2 2 1 1 1 -0 -1 -1 -0 1 1 1 1 1 1 1 1 1 1 1 0 0 0 0 0 0 0 0 0 0 1 1 1 1 1 1 1 1 1 1 1 1 1 1
0 0 -0 -1 -0 1 1 2 0 -0 -1 -1 -1 -0 0 0 0 0 0 0 -0 -0 -0 -0 -0 -0 -0 -1 -1 -1 -1 -1 -1 -0 -0 -0 -0 0 0 0 0 0 0 0 0 0 0 0 1
-1 -1 -1 0 -0 -1 -1 1 -0 -2 -2 -1 -1 -0 0 -0 0 -0 -0 -1 -1 -1 -1 -1 -1 -1 -1 -1 -1 -1 -1 -1 -1 -1 -1 -1 -1 -1 -0 -0 -0 -1 -1 -0 -0 -0 -0 -0 -0
Wind_Speed
14 9 2 4 6 5 1 2 1 1 2 1 2 6 7 5 3 4 1 2 3 2 2 2 5 6 7 8 8 8 9 9 9 10 10 10 10 11 11 12 12 12 12 12 13 13 14 14 13
8 3 5 5 5 2 3 2 2 1 2 2 4 5 6 5 3 5 1 2 3 3 3 3 5 7 7 8 8 8 8 9 9 9 9 10 10 10 11 11 12 12 12 12 12 12 13 13 12
5 3 5 5 4 5 5 3 4 1 1 2 4 5 4 3 3 2 1 1 4 5 4 4 6 7 7 8 8 9 8 8 8 9 9 9 9 10 10 10 10 10 11 11 11 11 11 11 11
3 5 5 5 3 3 4 3 4 3 2 4 4 5 3 2 2 2 2 4 6 6 6 5 6 6 7 7 8 8 8 8 9 8 8 8 9 9 9 9 9 9 10 10 10 10 10 10 10
4 5 5 2 2 2 1 2 4 3 2 2 4 4 2 2 3 5 4 5 5 5 6 6 7 7 7 7 7 8 8 8 9 8 8 8 8 8 8 8 8 9 9 9 9 9 9 9 9
4 5 4 3 4 2 1 2 3 3 2 2 4 4 2 1 4 4 5 5 5 5 6 6 6 7 7 7 6 7 7 8 8 8 8 7 7 7 7 7 7 8 8 8 8 8 8 8 9
5 5 4 5 4 3 3 2 4 3 3 2 4 4 2 1 1 4 5 5 5 6 6 6 6 6 6 6 7 6 7 7 7 7 8 7 7 7 6 6 6 6 7 7 7 7 8 8 8
5 5 3 3 5 5 3 2 2 3 3 1 3 6 4 3 2 4 5 5 5 5 5 5 6 6 5 5 6 7 6 6 7 7 7 7 7 6 6 5 5 5 6 6 6 6 7 8 8
4 4 3 4 5 4 3 3 1 2 4 2 2 2 3 6 5 6 5 4 4 4 4 5 5 6 5 4 5 6 6 5 6 6 6 6 5 5 5 5 5 5 5 5 5 5 6 7 8
4 4 5 2 3 3 2 3 3 3 2 1 2 3 5 7 6 5 4 3 2 2 2 3 4 4 5 4 4 4 4 5 4 4 5 5 5 5 5 5 5 4 4 4 4 5 5 6 6
3 5 3 1 0 2 1 1 2 5 3 4 5 5 6 6 6 5 3 2 1 0 2 2 3 3 3 4 3 3 3 3 3 3 3 4 4 4 4 4 4 4 4 4 4 4 5 5 4
3 1 2 1 0 1 2 2 1 3 5 4 6 8 8 6 6 5 4 2 1 0 1 1 2 2 2 2 2 2 2 2 2 2 2 2 2 3 3 3 3 3 3 3 3 3 4 4 3
2 1 0 0 1 1 1 1 2 2 2 3 6 7 7 6 5 4 3 2 1 1 1 1 1 1 1 1 1 1 1 0 1 1 1 2 2 1 1 1 2 2 2 2 2 2 2 3 2
1 1 0 1 0 0 2 1 1 4 3 5 7 6 5 5 5 3 2 2 1 1 1 1 1 1 1 0 0 1 1 1 1 0 0 2 2 2 1 1 1 1 1 1 1 1 1 1 1
2 2 2 2 2 1 2 3 5 4 5 5 5 5 4 4 4 4 4 3 3 2 1 1 2 1 0 1 1 1 2 2 1 1 2 2 3 3 2 1 0 0 0 1 1 1 1 1 1
2 2 2 3 2 2 3 7 4 4 6 5 4 4 4 3 4 4 4 3 3 2 2 2 2 1 1 1 1 1 2 2 1 1 2 2 3 3 3 1 1 1 1 1 1 0 0 1 1
2 1 3 4 2 2 4 7 4 4 6 5 5 4 4 3 3 3 3 4 3 3 3 2 2 2 2 2 1 1 2 2 2 2 2 2 2 4 3 2 2 2 1 0 1 1 1 1 1
3 3 4 5 3 3 5 8 5 4 5 6 5 4 4 4 5 3 3 4 3 3 2 2 2 2 2 1 1 1 2 2 2 2 2 3 2 3 3 2 2 2 1 1 1 1 1 1 1
4 4 5 5 2 3 7 9 7 5 4 5 4 4 5 5 4 2 2 3 2 2 2 2 1 2 1 1 1 1 2 2 1 2 2 2 2 2 3 2 2 2 2 3 2 1 1 1 1
2 3 4 4 2 3 5 9 7 5 5 5 5 5 5 3 2 2 2 1 2 3 3 2 2 2 2 2 2 1 2 2 2 2 2 2 3 3 2 3 3 3 2 2 2 1 1 1 0
4 5 5 4 4 2 3 6 4 2 2 2 3 3 3 4 4 3 2 2 2 3 3 3 2 1 1 1 0 1 1 1 1 2 2 3 3 4 3 3 3 3 3 4 3 3 2 2 1
5 4 4 2 1 4 0 5 6 3 3 3 4 3 4 4 4 3 3 3 3 4 3 2 2 1 1 1 1 2 1 2 3 2 3 4 4 4 4 3 3 3 3 4 4 3 3 3 3
3 1 2 2 2 3 2 3 7 1 4 5 5 4 4 4 4 4 4 5 4 3 2 2 2 1 1 1 2 2 2 3 2 2 3 4 4 4 4 4 3 3 3 4 4 3 3 3 3
0 2 3 3 2 3 5 5 6 4 5 4 4 5 5 4 4 4 3 3 2 2 1 1 1 2 1 1 1 2 3 3 3 3 3 3 3 3 4 4 4 4 4 4 4 4 4 4 4
3 3 3 4 2 6 2 4 7 6 3 4 4 5 5 4 3 3 3 3 2 2 2 1 1 2 2 2 2 3 4 4 4 4 4 4 3 3 4 4 4 4 5 5 4 4 5 5 5
3 4 4 4 5 5 2 6 6 4 2 2 3 3 2 2 2 3 3 3 3 3 2 1 2 3 3 2 3 3 4 3 3 4 4 4 4 4 5 5 5 5 6 6 5 4 5 5 5
2 3 2 3 1 3 5 6 7 2 3 2 2 1 2 2 2 3 3 3 3 3 3 3 2 3 3 3 4 4 4 4 4 4 4 4 4 5 5 5 5 5 6 5 5 5 5 5 6
1 3 3 3 2 5 6 5 5 4 4 4 3 3 3 3 2 3 3 3 3 3 2 2 2 3 3 3 3 3 4 4 4 4 4 5 5 6 5 5 5 5 6 6 5 5 5 5 6
2 2 2 2 3 3 5 6 4 4 4 4 4 4 4 3 3 3 3 3 3 2 1 2 2 2 3 3 3 3 4 4 4 4 4 5 5 6 6 5 5 5 6 6 5 6 6 7 7
3 4 5 3 4 4 3 6 2 2 3 3 4 4 4 3 3 3 3 2 2 3 2 2 2 3 3 3 3 4 4 4 4 4 5 5 5 6 6 5 5 6 6 6 6 7 7 7 8
Wind_Direction
330 332 55 56 59 59 193 253 173 75 54 12 56 89 99 91 104 137 153 26 48 65 65 65 72 67 64 61 59 65 67 69 72 76 76 73 73 71 71 72 72 73 73 75 78 76 74 71 68
331 354 54 60 95 123 249 244 174 202 175 133 64 78 80 76 66 97 50 350 56 75 78 69 75 70 65 61 58 64 68 70 73 80 80 77 76 75 74 73 72 72 74 75 77 77 74 71 68
330 47 78 78 120 174 198 204 189 179 64 82 65 55 84 99 100 131 245 90 71 62 59 70 75 71 67 62 59 61 63 67 71 80 81 79 78 78 75 74 74 75 78 78 76 75 73 70 68
51 51 58 81 167 217 195 194 168 135 51 54 95 78 67 54 136 154 123 89 75 52 50 62 68 68 67 65 61 64 63 64 65 74 84 81 78 79 78 74 73 76 81 81 78 74 73 70 70
58 79 78 75 216 241 206 186 147 132 128 61 98 107 101 7 80 102 101 86 82 54 51 59 62 60 61 65 62 65 63 62 62 65 79 81 80 79 80 78 76 75 81 82 79 74 70 69 71
59 74 106 187 209 213 226 199 140 123 132 101 101 113 152 50 82 99 97 86 84 71 57 56 59 55 52 53 59 65 65 62 59 59 72 76 76 76 76 78 80 78 80 85 82 76 70 69 72
107 107 154 177 182 209 219 176 147 152 144 159 137 123 160 273 98 106 99 90 81 74 57 43 45 50 51 50 47 61 66 61 57 57 65 71 74 73 75 77 82 82 82 81 82 79 74 69 69
119 113 139 176 181 213 202 149 146 154 158 97 120 142 191 220 159 105 94 85 79 67 55 37 34 37 40 45 46 51 58 62 58 57 62 68 74 73 70 69 77 81 82 84 81 80 78 71 67
89 90 178 196 184 201 182 144 65 76 107 63 56 147 177 143 121 96 79 59 54 49 41 36 30 29 27 43 45 49 52 58 63 60 61 64 67 69 70 68 72 73 77 82 78 79 78 73 70
81 147 199 190 180 176 171 154 156 108 104 91 44 50 104 122 126 123 117 105 67 28 12 27 27 22 20 27 44 49 53 54 62 65 62 67 70 72 68 69 71 66 68 72 72 71 78 75 70
111 164 173 145 126 142 126 133 147 139 194 205 189 160 138 133 137 141 147 153 171 244 2 2 9 22 27 27 42 49 49 49 51 57 63 75 76 71 65 62 62 61 58 56 56 61 64 72 71
115 131 144 167 74 124 155 157 148 174 212 190 169 155 149 151 163 169 173 189 186 21 302 331 3 11 19 34 35 59 53 45 36 22 50 90 75 65 60 55 46 45 45 41 41 47 55 59 66
121 166 79 298 106 130 109 166 177 227 217 136 133 141 159 169 179 182 179 184 189 225 274 306 349 354 359 40 22 41 46 27 2 1 5 140 115 110 87 65 58 35 26 27 25 33 45 41 47
137 118 334 279 195 134 148 252 164 237 169 136 145 163 176 180 181 174 182 209 228 240 258 286 287 297 4 345 320 308 241 227 208 297 267 178 157 146 141 116 70 36 17 2 20 35 30 23 47
80 61 344 265 208 187 123 283 228 214 148 150 168 180 188 196 185 189 201 208 215 228 246 268 262 292 296 276 252 252 239 211 211 231 238 200 178 176 166 156 160 287 317 5 20 43 35 17 3
68 64 294 269 187 171 156 254 249 179 162 183 194 197 205 215 208 210 210 212 213 216 229 250 256 271 269 266 255 236 242 213 212 213 226 214 197 189 180 183 221 228 173 62 2 291 306 304 316
41 255 247 272 213 172 192 245 257 195 181 202 212 213 215 231 241 231 218 211 210 208 213 234 253 247 253 257 246 250 257 225 220 212 211 215 208 198 192 200 218 211 167 322 243 257 243 256 293
224 234 244 243 240 195 228 250 262 225 209 220 225 222 220 228 239 238 221 213 211 211 208 218 236 252 264 267 285 300 297 263 234 226 221 220 217 219 205 204 210 194 179 215 229 220 252 234 248
179 204 245 252 247 225 239 256 266 242 231 230 229 229 232 237 253 246 231 214 203 209 212 220 231 249 237 258 246 261 274 267 270 258 238 235 228 237 219 212 205 192 197 210 219 215 217 280 262
210 241 261 285 310 248 267 269 270 236 224 216 214 222 229 251 280 264 245 230 212 211 221 231 232 235 227 230 227 244 269 261 267 270 268 254 246 242 239 206 209 204 202 211 217 177 194 247 272
229 223 238 260 324 320 311 294 272 262 219 227 223 219 219 221 231 240 243 249 249 236 230 232 233 237 245 240 220 326 344 326 294 287 289 282 263 251 247 230 208 202 198 210 221 196 183 211 255
243 232 235 242 321 284 235 282 279 264 273 261 256 251 239 240 235 237 238 250 250 247 239 234 234 238 241 171 184 192 231 252 263 264 275 286 268 260 254 240 219 202 208 213 219 208 199 190 222
229 267 245 238 203 289 262 231 283 306 270 266 256 249 248 243 232 231 234 237 247 253 242 235 238 257 269 217 205 208 257 257 272 281 283 287 282 266 262 245 229 217 214 216 211 211 206 202 215
73 41 43 64 95 266 235 199 276 249 238 265 249 244 246 246 245 246 248 252 267 290 289 271 255 278 277 257 240 233 260 268 269 270 269 273 280 280 274 262 241 234 225 218 216 213 213 215 217
62 82 15 351 342 252 219 202 251 259 241 232 238 238 239 242 244 265 267 260 265 274 278 286 281 298 291 266 257 256 260 250 246 256 254 263 273 281 276 273 258 247 240 229 222 219 224 222 221
212 155 170 221 243 277 285 234 251 268 285 277 252 242 242 247 249 267 266 249 246 251 263 274 275 293 299 283 273 268 262 254 257 257 255 256 259 269 270 267 262 257 247 242 227 227 229 229 228
159 200 193 160 240 269 264 277 297 304 322 322 309 298 273 269 267 278 290 282 262 253 248 247 259 289 298 292 292 289 278 268 265 268 269 267 268 272 267 267 268 266 257 250 233 230 233 232 232
144 153 109 143 215 265 279 265 253 270 273 289 295 286 284 289 287 291 297 297 285 266 263 268 265 272 291 296 292 298 289 275 272 273 272 271 273 270 269 270 268 268 262 253 242 239 236 236 241
149 149 156 166 187 204 270 270 231 221 239 246 264 275 272 278 278 284 295 298 301 312 306 300 300 304 306 304 302 307 301 293 289 277 272 274 278 274 267 267 267 265 263 252 244 243 236 237 244
180 185 161 185 239 212 234 269 286 227 265 243 259 278 286 288 290 285 292 308 326 327 326 317 307 305 303 304 308 308 309 303 291 284 280 279 277 273 269 267 265 264 262 252 242 244 243 238 244
Height
1512 1512 1514 1516 1521 1534 1537 1533 1529 1528 1528 1528 1527 1527 1529 1533 1536 1543 1541 1539 1540 1541 1542 1542 1543 1543 1543 1543 1543 1543 1543 1543 1543 1543 1543 1543 1543 1543 1543 1543 1543 1542 1542 1542 1542 1542 1542 1542 1542
1512 1513 1515 1516 1528 1540 1538 1532 1530 1527 1528 1528 1528 1528 1530 1533 1535 1537 1537 1538 1540 1541 1541 1542 1542 1543 1543 1543 1543 1543 1543 1543 1543 1543 1543 1543 1543 1543 1543 1543 1543 1543 1543 1542 1542 1542 1542 1542 1542
1512 1513 1515 1520 1532 1537 1533 1529 1528 1527 1527 1527 1528 1530 1532 1534 1535 1536 1537 1538 1539 1540 1541 1541 1542 1542 1542 1542 1542 1542 1542 1543 1543 1543 1543 1543 1543 1543 1543 1543 1543 1543 1543 1543 1543 1543 1543 1543 1542
1512 1514 1517 1526 1532 1531 1528 1527 1526 1526 1527 1527 1528 1531 1533 1536 1536 1537 1537 1538 1539 1539 1540 1540 1541 1541 1541 1542 1542 1542 1542 1542 1542 1542 1543 1543 1543 1543 1543 1543 1543 1543 1543 1543 1543 1543 1543 1543 1543
1512 1513 1523 1533 1532 1529 1527 1526 1526 1526 1527 1528 1528 1531 1534 1536 1536 1536 1537 1537 1538 1538 1539 1539 1540 1540 1540 1541 1541 1541 1541 1541 1542 1542 1542 1542 1542 1542 1542 1543 1543 1543 1543 1543 1543 1543 1543 1543 1543
1512 1514 1529 1535 1531 1528 1526 1525 1526 1526 1527 1528 1529 1531 1533 1535 1535 1535 1536 1537 1537 1537 1538 1539 1539 1539 1539 1539 1540 1540 1540 1541 1541 1541 1541 1541 1542 1542 1542 1542 1542 1542 1542 1542 1542 1542 1542 1543 1543
1513 1519 1528 1529 1529 1528 1526 1525 1525 1526 1527 1528 1528 1531 1532 1533 1534 1534 1535 1536 1537 1537 1537 1537 1538 1538 1538 1538 1539 1539 1539 1540 1540 1540 1540 1541 1541 1541 1541 1541 1542 1542 1542 1542 1542 1542 1542 1542 1542
1512 1518 1525 1528 1527 1526 1524 1524 1524 1525 1527 1528 1528 1529 1530 1532 1532 1533 1534 1535 1535 1536 1536 1536 1536 1537 1537 1537 1537 1538 1538 1538 1539 1539 1539 1540 1540 1540 1540 1541 1541 1541 1541 1541 1541 1541 1541 1542 1542
1512 1522 1527 1525 1524 1523 1522 1523 1524 1525 1525 1526 1527 1528 1528 1530 1531 1531 1532 1532 1533 1534 1534 1534 1535 1535 1535 1536 1536 1536 1537 1537 1537 1538 1538 1539 1539 1539 1539 1540 1540 1540 1540 1540 1541 1541 1541 1541 1541
1513 1524 1522 1521 1521 1521 1521 1522 1523 1524 1525 1526 1526 1526 1527 1528 1528 1529 1529 1529 1530 1531 1532 1532 1533 1533 1533 1534 1534 1534 1535 1535 1536 1536 1537 1537 1537 1538 1538 1538 1539 1539 1539 1540 1540 1540 1540 1540 1540
1514 1520 1520 1520 1520 1520 1521 1522 1522 1523 1525 1524 1524 1524 1525 1526 1526 1527 1528 1528 1529 1529 1529 1530 1530 1531 1531 1532 1532 1532 1533 1533 1534 1535 1535 1535 1536 1536 1536 1537 1537 1538 1538 1538 1538 1539 1539 1539 1540
1516 1518 1519 1519 1519 1520 1521 1521 1522 1522 1522 1522 1522 1523 1523 1524 1524 1525 1525 1526 1527 1527 1527 1527 1528 1529 1529 1529 1530 1530 1531 1531 1532 1532 1533 1533 1534 1534 1534 1535 1535 1536 1536 1537 1537 1537 1538 1538 1538
1517 1518 1519 1519 1519 1519 1520 1521 1521 1521 1521 1521 1521 1522 1522 1522 1523 1524 1524 1524 1525 1525 1525 1525 1525 1526 1526 1527 1527 1528 1528 1529 1529 1530 1530 1531 1531 1532 1532 1533 1533 1534 1534 1535 1535 1536 1536 1536 1537
1517 1518 1519 1519 1519 1519 1520 1521 1521 1519 1520 1520 1520 1520 1520 1520 1521 1521 1521 1521 1522 1522 1522 1522 1522 1523 1523 1524 1525 1525 1525 1526 1527 1527 1528 1528 1529 1529 1530 1531 1531 1532 1532 1533 1533 1534 1534 1535 1535
1518 1520 1520 1519 1519 1519 1520 1521 1519 1517 1518 1518 1518 1519 1519 1519 1519 1518 1519 1519 1519 1519 1519 1519 1520 1520 1520 1521 1522 1522 1523 1523 1524 1524 1525 1525 1526 1527 1527 1528 1529 1529 1530 1531 1531 1532 1532 1533 1533
1519 1522 1523 1519 1518 1519 1523 1521 1516 1516 1516 1516 1516 1516 1516 1517 1516 1516 1517 1516 1517 1516 1516 1517 1517 1517 1518 1518 1519 1519 1520 1520 1521 1521 1522 1522 1523 1524 1525 1525 1526 1527 1527 1528 1529 1529 1529 1530 1530
1523 1525 1523 1521 1518 1518 1520 1519 1515 1514 1514 1514 1514 1514 1514 1514 1514 1514 1514 1514 1514 1514 1514 1514 1514 1514 1515 1515 1516 1516 1516 1517 1517 1518 1518 1519 1520 1521 1521 1522 1523 1524 1524 1525 1526 1526 1527 1527 1527
1524 1525 1522 1521 1517 1518 1519 1516 1513 1512 1512 1511 1511 1511 1511 1511 1510 1511 1511 1511 1511 1511 1511 1511 1511 1511 1511 1512 1512 1513 1513 1513 1514 1514 1515 1516 1516 1517 1518 1518 1519 1520 1521 1522 1522 1523 1523 1524 1524
1519 1520 1521 1518 1516 1518 1517 1514 1511 1510 1510 1509 1508 1508 1508 1508 1509 1508 1508 1508 1508 1508 1508 1508 1508 1508 1508 1508 1508 1508 1509 1509 1510 1510 1511 1512 1512 1513 1514 1514 1515 1516 1517 1518 1519 1519 1520 1520 1521
1518 1520 1520 1518 1517 1517 1517 1513 1508 1507 1506 1505 1505 1505 1505 1506 1505 1505 1505 1505 1505 1505 1505 1505 1505 1505 1505 1505 1505 1505 1506 1505 1506 1507 1507 1508 1508 1509 1510 1510 1510 1511 1512 1514 1515 1515 1516 1517 1518
1518 1520 1520 1520 1518 1517 1517 1512 1507 1504 1504 1504 1504 1503 1503 1503 1503 1502 1502 1502 1502 1502 1502 1502 1502 1502 1502 1502 1502 1502 1502 1502 1503 1503 1504 1504 1504 1505 1506 1505 1506 1507 1508 1509 1510 1511 1512 1512 1514
1517 1516 1517 1519 1522 1524 1521 1518 1505 1504 1503 1502 1501 1501 1500 1501 1501 1500 1500 1499 1499 1499 1500 1500 1500 1500 1499 1499 1499 1499 1498 1498 1498 1499 1500 1500 1500 1501 1501 1501 1501 1502 1503 1504 1506 1506 1507 1509 1509
1515 1515 1517 1518 1522 1525 1523 1523 1508 1505 1503 1500 1499 1498 1498 1498 1498 1498 1498 1498 1498 1497 1497 1497 1497 1497 1497 1496 1496 1496 1495 1495 1495 1495 1496 1496 1496 1496 1496 1496 1496 1498 1499 1500 1501 1502 1503 1504 1505
1516 1517 1519 1522 1525 1524 1519 1522 1509 1506 1500 1498 1497 1496 1496 1496 1496 1496 1496 1496 1495 1495 1495 1494 1494 1494 1494 1493 1493 1492 1492 1492 1491 1491 1491 1491 1492 1491 1491 1491 1492 1493 1494 1495 1496 1497 1498 1499 1500
1518 1521 1525 1524 1528 1520 1516 1517 1509 1499 1497 1496 1495 1494 1494 1494 1494 1494 1493 1492 1492 1492 1492 1491 1491 1490 1490 1490 1490 1489 1489 1489 1488 1487 1487 1487 1487 1487 1487 1487 1488 1488 1488 1489 1491 1492 1493 1494 1495
1519 1519 1523 1522 1521 1519 1517 1514 1503 1497 1495 1494 1493 1493 1493 1492 1492 1491 1491 1491 1490 1489 1489 1488 1488 1488 1487 1487 1487 1486 1486 1485 1484 1484 1483 1482 1482 1482 1483 1483 1483 1483 1483 1484 1485 1486 1487 1488 1489
1518 1521 1520 1525 1527 1526 1517 1513 1502 1495 1494 1494 1493 1492 1491 1491 1490 1490 1489 1489 1488 1487 1487 1486 1486 1485 1485 1484 1483 1482 1482 1481 1480 1480 1479 1479 1479 1478 1478 1477 1478 1478 1478 1479 1479 1480 1481 1482 1483
1518 1520 1525 1526 1523 1518 1513 1511 1504 1497 1496 1494 1493 1491 1490 1490 1489 1488 1488 1487 1486 1486 1485 1484 1484 1483 1482 1481 1480 1480 1479 1478 1476 1475 1475 1474 1474 1475 1474 1473 1473 1473 1473 1474 1474 1474 1475 1476 1477
1520 1522 1522 1525 1525 1521 1516 1506 1497 1496 1494 1494 1493 1491 1490 1489 1488 1487 1486 1485 1484 1483 1483 1482 1481 1481 1480 1479 1477 1476 1475 1474 1472 1471 1470 1470 1469 1469 1468 1468 1468 1467 1468 1468 1468 1468 1470 1470 1471
1518 1519 1522 1522 1524 1527 1523 1508 1494 1493 1492 1492 1491 1490 1489 1488 1487 1486 1485 1484 1482 1481 1480 1479 1479 1478 1476 1475 1473 1472 1471 1469 1468 1466 1466 1465 1465 1464 1463 1463 1463 1463 1463 1462 1462 1462 1464 1464 1464